RYR29M LFOB-EPLL

Flight info

Callsign RYR29M
Flight time 1h 55m
Altitude 36000
Route RANUX DCT LIPNI DCT PITES/N0441F350 DCT RUDUS L984 SULUS Z650 VEMUT DCT LAGAR DCT LUNUK DCT ABAKU
Aircraft B738/M-SDE2E3FGHIRWXY/LB1

Departure

Time 2026-04-22 06:44
Airport Beauvais-Tillé airport (LFOB)

Arrival

Time 2026-04-22 08:40
Airport Łódź Władysław Reymont Airport (EPLL)
Time Latitude Longitude Altitude Speed Heading
2026-04-22 06:23 49.45827 2.11116 367 ft 0 kts 34°
2026-04-22 06:36 49.45823 2.11112 367 ft 2 kts 34°
2026-04-22 06:36 49.45810 2.11098 367 ft 3 kts 34°
2026-04-22 06:36 49.45792 2.11086 367 ft 3 kts
2026-04-22 06:37 49.45772 2.11093 367 ft 3 kts 327°
2026-04-22 06:37 49.45761 2.11110 367 ft 0 kts 304°
2026-04-22 06:40 49.45795 2.11041 367 ft 13 kts 294°
2026-04-22 06:40 49.45773 2.10976 367 ft 0 kts 212°
2026-04-22 06:41 49.45736 2.10943 367 ft 14 kts 208°
2026-04-22 06:41 49.45665 2.10878 367 ft 10 kts 234°
2026-04-22 06:42 49.45680 2.10737 367 ft 20 kts 304°
2026-04-22 06:42 49.45769 2.10531 367 ft 14 kts 310°
2026-04-22 06:42 49.45840 2.10460 367 ft 8 kts 329°
2026-04-22 06:42 49.45840 2.10417 367 ft 4 kts 226°
2026-04-22 06:43 49.45808 2.10427 367 ft 7 kts 110°
2026-04-22 06:43 49.45803 2.10443 367 ft 0 kts 119°
2026-04-22 06:43 49.45715 2.10651 367 ft 60 kts 122°
2026-04-22 06:44 49.45340 2.11513 367 ft 134 kts 124°
2026-04-22 06:44 49.44730 2.12903 785 ft 167 kts 124°
2026-04-22 06:44 49.44149 2.14357 1886 ft 149 kts 110°
2026-04-22 06:44 49.43919 2.15833 2766 ft 139 kts 92°
2026-04-22 06:45 49.43963 2.17335 3377 ft 146 kts 86°
2026-04-22 06:45 49.44038 2.18960 3890 ft 162 kts 87°
2026-04-22 06:45 49.44125 2.20823 4187 ft 188 kts 88°
2026-04-22 06:45 49.44221 2.22934 4621 ft 207 kts 88°
2026-04-22 06:46 49.44324 2.25245 5122 ft 226 kts 87°
2026-04-22 06:46 49.44434 2.27733 5724 ft 239 kts 87°
2026-04-22 06:46 49.44549 2.30318 6493 ft 246 kts 86°
2026-04-22 06:46 49.44664 2.32939 7300 ft 250 kts 87°
2026-04-22 06:47 49.44563 2.35647 8116 ft 254 kts 102°
2026-04-22 06:47 49.43969 2.38214 8846 ft 262 kts 113°
2026-04-22 06:47 49.43138 2.40719 9650 ft 265 kts 116°
2026-04-22 06:47 49.42221 2.43214 10391 ft 270 kts 118°
2026-04-22 06:48 49.41271 2.45698 10990 ft 281 kts 117°
2026-04-22 06:48 49.40261 2.48410 11453 ft 296 kts 117°
2026-04-22 06:48 49.39216 2.51218 11767 ft 315 kts 117°
2026-04-22 06:48 49.38097 2.54221 12191 ft 330 kts 117°
2026-04-22 06:49 49.36948 2.57305 12807 ft 337 kts 117°
2026-04-22 06:49 49.35772 2.60452 13470 ft 342 kts 117°
2026-04-22 06:49 49.34581 2.63660 14132 ft 347 kts 116°
2026-04-22 06:49 49.33392 2.66913 14759 ft 353 kts 116°
2026-04-22 06:50 49.32165 2.70241 15390 ft 359 kts 116°
2026-04-22 06:50 49.30923 2.73585 15982 ft 365 kts 116°
2026-04-22 06:50 49.29665 2.76951 16526 ft 371 kts 116°
2026-04-22 06:50 49.28379 2.80384 17246 ft 372 kts 117°
2026-04-22 06:51 49.27083 2.83830 17871 ft 376 kts 117°
2026-04-22 06:51 49.25763 2.87329 18403 ft 381 kts 117°
2026-04-22 06:51 49.24430 2.90857 18944 ft 386 kts 117°
2026-04-22 06:51 49.23065 2.94454 19288 ft 398 kts 117°
2026-04-22 06:52 49.21657 2.98180 19591 ft 409 kts 116°
2026-04-22 06:52 49.20216 3.01993 19968 ft 417 kts 116°
2026-04-22 06:52 49.18899 3.05953 20491 ft 419 kts 110°
2026-04-22 06:52 49.17845 3.10123 20980 ft 421 kts 104°
2026-04-22 06:53 49.16983 3.14356 21441 ft 425 kts 102°
2026-04-22 06:53 49.16133 3.18720 21901 ft 430 kts 102°
2026-04-22 06:53 49.15253 3.23117 22348 ft 435 kts 102°
2026-04-22 06:53 49.14351 3.27539 22792 ft 439 kts 103°
2026-04-22 06:54 49.13424 3.32034 23227 ft 444 kts 103°
2026-04-22 06:54 49.12486 3.36557 23582 ft 451 kts 103°
2026-04-22 06:54 49.11529 3.41145 23979 ft 455 kts 103°
2026-04-22 06:54 49.10560 3.45775 24461 ft 458 kts 103°
2026-04-22 06:55 49.09636 3.50482 24738 ft 461 kts 98°
2026-04-22 06:55 49.09086 3.55197 25304 ft 455 kts 90°
2026-04-22 06:55 49.08921 3.60015 25660 ft 453 kts 83°
2026-04-22 06:55 49.09106 3.64809 26035 ft 452 kts 78°
2026-04-22 06:56 49.09450 3.69583 26409 ft 454 kts 76°
2026-04-22 06:56 49.09816 3.74398 26777 ft 457 kts 76°
2026-04-22 06:56 49.10161 3.79172 27133 ft 461 kts 77°
2026-04-22 06:56 49.10503 3.84094 27618 ft 460 kts 77°
2026-04-22 06:57 49.10837 3.88903 27954 ft 463 kts 76°
2026-04-22 06:57 49.11207 3.93816 28225 ft 467 kts 77°
2026-04-22 06:57 49.11550 3.98761 28533 ft 470 kts 77°
2026-04-22 06:57 49.11882 4.03767 28832 ft 474 kts 77°
2026-04-22 06:58 49.12205 4.08785 29121 ft 477 kts 77°
2026-04-22 06:58 49.12521 4.13797 29407 ft 480 kts 77°
2026-04-22 06:58 49.12837 4.18893 29681 ft 483 kts 77°
2026-04-22 06:58 49.13153 4.24009 29942 ft 486 kts 77°
2026-04-22 06:59 49.13481 4.29170 30217 ft 486 kts 76°
2026-04-22 06:59 49.14022 4.34200 30752 ft 476 kts 70°
2026-04-22 06:59 49.14836 4.39060 31122 ft 470 kts 65°
2026-04-22 06:59 49.15915 4.43718 31426 ft 466 kts 61°
2026-04-22 07:00 49.17146 4.48365 31770 ft 465 kts 60°
2026-04-22 07:00 49.18369 4.52870 32101 ft 465 kts 60°
2026-04-22 07:00 49.19602 4.57431 32515 ft 463 kts 60°
2026-04-22 07:00 49.20827 4.61989 32844 ft 463 kts 60°
2026-04-22 07:01 49.22052 4.66565 33159 ft 463 kts 61°
2026-04-22 07:01 49.23265 4.71106 33497 ft 462 kts 61°
2026-04-22 07:01 49.24482 4.75678 33801 ft 462 kts 61°
2026-04-22 07:01 49.25692 4.80239 34108 ft 462 kts 62°
2026-04-22 07:02 49.26884 4.84719 34909 ft 447 kts 62°
2026-04-22 07:02 49.28065 4.89037 35374 ft 444 kts 63°
2026-04-22 07:02 49.29253 4.93434 35474 ft 448 kts 64°
2026-04-22 07:02 49.30436 4.97865 35718 ft 448 kts 64°
2026-04-22 07:03 49.31610 5.02282 35993 ft 448 kts 64°
2026-04-22 07:03 49.32788 5.06727 36237 ft 448 kts 64°
2026-04-22 07:03 49.33949 5.11121 36258 ft 452 kts 64°
2026-04-22 07:04 49.36303 5.20069 36265 ft 450 kts 64°
2026-04-22 07:04 49.38627 5.28939 36267 ft 447 kts 65°
2026-04-22 07:05 49.40944 5.37819 36283 ft 447 kts 64°
2026-04-22 07:05 49.43268 5.46620 36292 ft 448 kts 64°
2026-04-22 07:06 49.45580 5.55541 36300 ft 449 kts 65°
2026-04-22 07:06 49.47871 5.64474 36302 ft 449 kts 65°
2026-04-22 07:07 49.49451 5.70661 36290 ft 448 kts 65°
2026-04-22 07:07 49.51717 5.79553 36286 ft 445 kts 65°
2026-04-22 07:08 49.54066 5.88357 36284 ft 444 kts 62°
2026-04-22 07:08 49.56659 5.96973 36280 ft 444 kts 62°
2026-04-22 07:09 49.59244 6.05627 36294 ft 444 kts 62°
2026-04-22 07:09 49.61857 6.14256 36294 ft 445 kts 62°
2026-04-22 07:10 49.64445 6.22942 36290 ft 443 kts 64°
2026-04-22 07:10 49.66961 6.31563 36289 ft 444 kts 62°
2026-04-22 07:11 49.69501 6.40235 36288 ft 442 kts 62°
2026-04-22 07:11 49.72035 6.48921 36289 ft 443 kts 62°
2026-04-22 07:12 49.74287 6.57800 36290 ft 447 kts 68°
2026-04-22 07:12 49.76173 6.66976 36290 ft 446 kts 69°
2026-04-22 07:13 49.78031 6.76085 36290 ft 440 kts 69°
2026-04-22 07:13 49.79876 6.85079 36062 ft 439 kts 69°
2026-04-22 07:13 49.80786 6.89505 35816 ft 436 kts 69°
2026-04-22 07:14 49.81711 6.94013 35562 ft 431 kts 69°
2026-04-22 07:14 49.82616 6.98423 35338 ft 429 kts 69°
2026-04-22 07:14 49.83524 7.02839 35296 ft 429 kts 69°
2026-04-22 07:15 49.85373 7.11607 35311 ft 431 kts 69°
2026-04-22 07:15 49.87217 7.20463 35315 ft 432 kts 69°
2026-04-22 07:16 49.89049 7.29345 35317 ft 432 kts 69°
2026-04-22 07:16 49.90860 7.38188 35318 ft 431 kts 69°
2026-04-22 07:17 49.92662 7.47042 35318 ft 429 kts 69°
2026-04-22 07:17 49.94457 7.55908 35322 ft 428 kts 69°
2026-04-22 07:18 49.96251 7.64677 35326 ft 428 kts 69°
2026-04-22 07:18 49.98040 7.73518 35329 ft 429 kts 69°
2026-04-22 07:19 49.99811 7.82421 35337 ft 430 kts 70°
2026-04-22 07:19 50.01556 7.91269 35340 ft 431 kts 70°
2026-04-22 07:20 50.03313 8.00217 35345 ft 431 kts 70°
2026-04-22 07:20 50.04644 8.09343 35346 ft 435 kts 80°
2026-04-22 07:21 50.04842 8.12446 35348 ft 436 kts 82°
2026-04-22 07:21 50.04943 8.15185 35348 ft 437 kts 84°
2026-04-22 07:22 50.05057 8.24617 35348 ft 436 kts 86°
2026-04-22 07:22 50.05136 8.34089 35348 ft 436 kts 86°
2026-04-22 07:23 50.05216 8.43545 35348 ft 436 kts 86°
2026-04-22 07:23 50.05297 8.52963 35347 ft 436 kts 86°
2026-04-22 07:24 50.05388 8.62354 35348 ft 436 kts 86°
2026-04-22 07:24 50.05551 8.71803 35347 ft 437 kts 85°
2026-04-22 07:25 50.05728 8.81273 35350 ft 438 kts 85°
2026-04-22 07:25 50.05904 8.90703 35348 ft 435 kts 85°
2026-04-22 07:26 50.06064 9.00116 35348 ft 434 kts 85°
2026-04-22 07:26 50.06233 9.09521 35348 ft 435 kts 85°
2026-04-22 07:27 50.06368 9.18874 35346 ft 435 kts 85°
2026-04-22 07:27 50.06482 9.28303 35346 ft 435 kts 86°
2026-04-22 07:28 50.06618 9.40900 35341 ft 434 kts 86°
2026-04-22 07:28 50.06723 9.50256 35334 ft 434 kts 85°
2026-04-22 07:29 50.06833 9.59635 35338 ft 434 kts 86°
2026-04-22 07:29 50.06920 9.69000 35328 ft 434 kts 86°
2026-04-22 07:30 50.07001 9.78401 35330 ft 434 kts 86°
2026-04-22 07:30 50.07113 9.87741 35330 ft 433 kts 86°
2026-04-22 07:31 50.07199 9.97142 35328 ft 433 kts 86°
2026-04-22 07:31 50.07274 10.06549 35330 ft 434 kts 86°
2026-04-22 07:32 50.07306 10.15938 35334 ft 433 kts 87°
2026-04-22 07:32 50.07302 10.25314 35332 ft 433 kts 86°
2026-04-22 07:33 50.07385 10.34633 35335 ft 432 kts 86°
2026-04-22 07:33 50.07436 10.43996 35337 ft 432 kts 86°
2026-04-22 07:34 50.07465 10.53318 35338 ft 433 kts 86°
2026-04-22 07:34 50.07482 10.62693 35347 ft 434 kts 86°
2026-04-22 07:35 50.07192 10.72097 35344 ft 437 kts 95°
2026-04-22 07:35 50.05799 10.81338 35346 ft 439 kts 104°
2026-04-22 07:36 50.03896 10.90373 35348 ft 439 kts 105°
2026-04-22 07:36 50.01981 10.99332 35348 ft 439 kts 105°
2026-04-22 07:37 50.00051 11.08352 35347 ft 440 kts 105°
2026-04-22 07:37 49.98114 11.17396 35348 ft 440 kts 105°
2026-04-22 07:38 49.96188 11.26420 35348 ft 440 kts 105°
2026-04-22 07:38 49.94253 11.35440 35345 ft 438 kts 105°
2026-04-22 07:39 49.92396 11.44366 35346 ft 436 kts 102°
2026-04-22 07:39 49.90788 11.53449 35325 ft 436 kts 102°
2026-04-22 07:40 49.89141 11.62452 35311 ft 433 kts 103°
2026-04-22 07:40 49.87823 11.71512 35318 ft 434 kts 95°
2026-04-22 07:41 49.87040 11.80827 35304 ft 434 kts 94°
2026-04-22 07:41 49.86227 11.90074 35306 ft 433 kts 94°
2026-04-22 07:42 49.85402 11.99280 35299 ft 433 kts 94°
2026-04-22 07:42 49.84565 12.08530 35288 ft 432 kts 94°
2026-04-22 07:43 49.83706 12.17758 35289 ft 432 kts 95°
2026-04-22 07:43 49.82851 12.26949 35270 ft 432 kts 94°
2026-04-22 07:44 49.82016 12.36171 35272 ft 432 kts 94°
2026-04-22 07:44 49.81932 12.45366 35278 ft 424 kts 75°
2026-04-22 07:45 49.82812 12.49698 35289 ft 422 kts 64°
2026-04-22 07:45 49.84062 12.53830 35297 ft 421 kts 61°
2026-04-22 07:45 49.86773 12.61773 35317 ft 420 kts 59°
2026-04-22 07:46 49.89554 12.69747 35329 ft 418 kts 59°
2026-04-22 07:46 49.92324 12.77678 35334 ft 418 kts 59°
2026-04-22 07:47 49.95094 12.85613 35324 ft 417 kts 59°
2026-04-22 07:47 49.97866 12.93551 35327 ft 419 kts 59°
2026-04-22 07:48 50.00667 13.01435 35327 ft 419 kts 59°
2026-04-22 07:48 50.03468 13.09376 35326 ft 419 kts 59°
2026-04-22 07:49 50.06261 13.17345 35330 ft 418 kts 59°
2026-04-22 07:49 50.09021 13.25256 35331 ft 417 kts 59°
2026-04-22 07:50 50.11788 13.33221 35323 ft 417 kts 59°
2026-04-22 07:50 50.14540 13.41173 35326 ft 418 kts 59°
2026-04-22 07:51 50.17299 13.49175 35325 ft 418 kts 59°
2026-04-22 07:51 50.20033 13.57128 35324 ft 418 kts 59°
2026-04-22 07:52 50.22779 13.65141 35320 ft 417 kts 59°
2026-04-22 07:52 50.25517 13.73157 35320 ft 418 kts 60°
2026-04-22 07:53 50.28139 13.80862 35320 ft 418 kts 60°
2026-04-22 07:53 50.30865 13.88894 35319 ft 418 kts 60°
2026-04-22 07:54 50.33576 13.96908 35319 ft 418 kts 60°
2026-04-22 07:54 50.36292 14.04962 35318 ft 418 kts 60°
2026-04-22 07:55 50.39021 14.13105 35324 ft 425 kts 62°
2026-04-22 07:55 50.41761 14.21285 35319 ft 422 kts 60°
2026-04-22 07:56 50.44480 14.29416 35318 ft 418 kts 60°
2026-04-22 07:56 50.47165 14.37474 35319 ft 419 kts 60°
2026-04-22 07:57 50.49859 14.45589 35320 ft 418 kts 60°
2026-04-22 07:57 50.52544 14.53706 35321 ft 418 kts 60°
2026-04-22 07:58 50.55203 14.61769 35319 ft 418 kts 60°
2026-04-22 07:58 50.57884 14.69928 35320 ft 419 kts 60°
2026-04-22 07:59 50.60552 14.78073 35320 ft 418 kts 60°
2026-04-22 07:59 50.63203 14.86193 35320 ft 419 kts 60°
2026-04-22 08:00 50.65878 14.94346 35326 ft 419 kts 60°
2026-04-22 08:00 50.68510 15.02396 35325 ft 417 kts 61°
2026-04-22 08:01 50.71147 15.10564 35320 ft 418 kts 61°
2026-04-22 08:01 50.73772 15.18750 35323 ft 418 kts 61°
2026-04-22 08:02 50.76394 15.26959 35320 ft 417 kts 61°
2026-04-22 08:02 50.78995 15.35107 35319 ft 417 kts 61°
2026-04-22 08:03 50.81379 15.43490 35328 ft 420 kts 66°
2026-04-22 08:03 50.83531 15.52104 35323 ft 420 kts 66°
2026-04-22 08:04 50.85647 15.60579 35315 ft 417 kts 66°
2026-04-22 08:04 50.87772 15.69073 35313 ft 418 kts 66°
2026-04-22 08:05 50.89918 15.77653 35307 ft 418 kts 66°
2026-04-22 08:05 50.92048 15.86189 35305 ft 418 kts 66°
2026-04-22 08:06 50.94231 15.94739 35305 ft 418 kts 66°
2026-04-22 08:06 50.96407 16.03311 35301 ft 419 kts 66°
2026-04-22 08:07 50.98569 16.11900 35304 ft 418 kts 66°
2026-04-22 08:07 51.00708 16.20454 35302 ft 418 kts 66°
2026-04-22 08:08 51.02839 16.29022 35297 ft 417 kts 66°
2026-04-22 08:08 51.04968 16.37626 35297 ft 417 kts 66°
2026-04-22 08:09 51.07077 16.46184 35293 ft 418 kts 66°
2026-04-22 08:09 51.09185 16.54773 35291 ft 415 kts 66°
2026-04-22 08:10 51.11282 16.63356 35292 ft 414 kts 66°
2026-04-22 08:10 51.13332 16.71776 34997 ft 404 kts 66°
2026-04-22 08:11 51.14335 16.75911 34692 ft 397 kts 66°
2026-04-22 08:11 51.14678 16.77325 34553 ft 396 kts 66°
2026-04-22 08:11 51.15646 16.81324 34158 ft 393 kts 66°
2026-04-22 08:11 51.16629 16.85390 33753 ft 390 kts 66°
2026-04-22 08:12 51.17596 16.89400 33351 ft 387 kts 66°
2026-04-22 08:12 51.18554 16.93381 32951 ft 383 kts 66°
2026-04-22 08:12 51.19496 16.97300 32556 ft 380 kts 66°
2026-04-22 08:12 51.20438 17.01227 32160 ft 377 kts 66°
2026-04-22 08:13 51.21371 17.05123 31769 ft 374 kts 66°
2026-04-22 08:13 51.22297 17.08997 31381 ft 371 kts 66°
2026-04-22 08:13 51.22901 17.11528 31127 ft 369 kts 66°
2026-04-22 08:13 51.24104 17.16577 30625 ft 364 kts 66°
2026-04-22 08:14 51.25001 17.20349 30253 ft 361 kts 66°
2026-04-22 08:14 51.25591 17.22836 30009 ft 359 kts 66°
2026-04-22 08:14 51.26471 17.26547 29638 ft 356 kts 66°
2026-04-22 08:14 51.27342 17.30228 29267 ft 353 kts 66°
2026-04-22 08:15 51.28211 17.33906 28891 ft 351 kts 66°
2026-04-22 08:15 51.29071 17.37549 28515 ft 348 kts 67°
2026-04-22 08:15 51.29911 17.41121 28150 ft 346 kts 66°
2026-04-22 08:15 51.30757 17.44717 27779 ft 344 kts 66°
2026-04-22 08:16 51.31594 17.48285 27410 ft 342 kts 67°
2026-04-22 08:16 51.32431 17.51858 27041 ft 340 kts 67°
2026-04-22 08:16 51.33262 17.55409 26675 ft 339 kts 67°
2026-04-22 08:16 51.34092 17.58911 26312 ft 337 kts 66°
2026-04-22 08:17 51.34915 17.62367 25949 ft 336 kts 66°
2026-04-22 08:17 51.35738 17.65858 25584 ft 334 kts 66°
2026-04-22 08:17 51.36552 17.69346 25219 ft 333 kts 67°
2026-04-22 08:17 51.37360 17.72830 24857 ft 332 kts 67°
2026-04-22 08:18 51.38159 17.76290 24496 ft 331 kts 67°
2026-04-22 08:18 51.38954 17.79747 24136 ft 330 kts 67°
2026-04-22 08:18 51.39747 17.83202 23771 ft 329 kts 67°
2026-04-22 08:18 51.40522 17.86592 23411 ft 328 kts 67°
2026-04-22 08:19 51.41312 17.90050 23045 ft 327 kts 67°
2026-04-22 08:19 51.42091 17.93467 22685 ft 326 kts 67°
2026-04-22 08:19 51.42859 17.96836 22329 ft 325 kts 67°
2026-04-22 08:19 51.43634 18.00233 21972 ft 324 kts 67°
2026-04-22 08:20 51.44410 18.03637 21614 ft 323 kts 67°
2026-04-22 08:20 51.45178 18.07010 21258 ft 322 kts 67°
2026-04-22 08:20 51.45948 18.10392 20904 ft 321 kts 67°
2026-04-22 08:20 51.46712 18.13764 20551 ft 321 kts 67°
2026-04-22 08:21 51.47465 18.17091 20205 ft 320 kts 67°
2026-04-22 08:21 51.48222 18.20445 19856 ft 319 kts 67°
2026-04-22 08:21 51.48974 18.23789 19511 ft 318 kts 67°
2026-04-22 08:21 51.49724 18.27127 19168 ft 317 kts 67°
2026-04-22 08:22 51.50468 18.30445 18825 ft 316 kts 67°
2026-04-22 08:22 51.51210 18.33760 18483 ft 315 kts 67°
2026-04-22 08:22 51.51953 18.37085 18143 ft 314 kts 67°
2026-04-22 08:22 51.52677 18.40331 17812 ft 313 kts 67°
2026-04-22 08:23 51.53410 18.43622 17478 ft 312 kts 67°
2026-04-22 08:23 51.54142 18.46910 17142 ft 312 kts 67°
2026-04-22 08:23 51.54870 18.50186 16809 ft 311 kts 67°
2026-04-22 08:23 51.55594 18.53448 16478 ft 310 kts 67°
2026-04-22 08:24 51.56320 18.56717 16144 ft 309 kts 67°
2026-04-22 08:24 51.57060 18.59949 15817 ft 308 kts 66°
2026-04-22 08:24 51.57817 18.63184 15489 ft 308 kts 66°
2026-04-22 08:24 51.58546 18.66364 15166 ft 307 kts 67°
2026-04-22 08:25 51.59283 18.69629 14842 ft 306 kts 67°
2026-04-22 08:25 51.60005 18.72854 14527 ft 305 kts 67°
2026-04-22 08:25 51.60709 18.76027 14206 ft 305 kts 67°
2026-04-22 08:25 51.61418 18.79238 13881 ft 304 kts 68°
2026-04-22 08:26 51.62123 18.82450 13558 ft 304 kts 68°
2026-04-22 08:26 51.62828 18.85673 13239 ft 303 kts 68°
2026-04-22 08:26 51.63527 18.88880 12922 ft 303 kts 68°
2026-04-22 08:26 51.64216 18.92045 12609 ft 302 kts 68°
2026-04-22 08:27 51.64910 18.95235 12293 ft 302 kts 68°
2026-04-22 08:27 51.65604 18.98433 11980 ft 302 kts 68°
2026-04-22 08:27 51.66296 19.01622 11665 ft 301 kts 68°
2026-04-22 08:27 51.66988 19.04807 11348 ft 297 kts 68°
2026-04-22 08:28 51.67531 19.07989 11043 ft 292 kts 76°
2026-04-22 08:28 51.67802 19.11170 10747 ft 288 kts 82°
2026-04-22 08:28 51.67937 19.14364 10507 ft 281 kts 83°
2026-04-22 08:28 51.68031 19.17476 10343 ft 272 kts 84°
2026-04-22 08:29 51.68115 19.20480 10137 ft 266 kts 84°
2026-04-22 08:29 51.68195 19.23436 9876 ft 262 kts 84°
2026-04-22 08:29 51.68273 19.26356 9613 ft 259 kts 84°
2026-04-22 08:29 51.68349 19.29242 9323 ft 257 kts 84°
2026-04-22 08:30 51.68420 19.32043 9186 ft 250 kts 84°
2026-04-22 08:30 51.68489 19.34808 9041 ft 243 kts 84°
2026-04-22 08:30 51.68556 19.37523 8795 ft 242 kts 84°
2026-04-22 08:30 51.68623 19.40230 8518 ft 242 kts 84°
2026-04-22 08:31 51.68689 19.42943 8260 ft 241 kts 84°
2026-04-22 08:31 51.68754 19.45630 8001 ft 240 kts 84°
2026-04-22 08:31 51.68883 19.51003 7482 ft 239 kts 84°
2026-04-22 08:32 51.68946 19.53674 7228 ft 238 kts 84°
2026-04-22 08:32 51.69010 19.56346 6972 ft 238 kts 84°
2026-04-22 08:32 51.69073 19.58968 6723 ft 237 kts 84°
2026-04-22 08:32 51.69136 19.61612 6473 ft 236 kts 84°
2026-04-22 08:33 51.69281 19.64250 6221 ft 234 kts 77°
2026-04-22 08:33 51.69678 19.66782 5963 ft 232 kts 69°
2026-04-22 08:33 51.70207 19.69222 5680 ft 233 kts 67°
2026-04-22 08:33 51.70763 19.71707 5480 ft 230 kts 68°
2026-04-22 08:34 51.71521 19.73892 5201 ft 227 kts 44°
2026-04-22 08:34 51.72843 19.75181 5049 ft 218 kts 14°
2026-04-22 08:34 51.74324 19.75239 4749 ft 213 kts 350°
2026-04-22 08:34 51.75750 19.74677 4368 ft 208 kts 346°
2026-04-22 08:35 51.77097 19.74057 4109 ft 198 kts 343°
2026-04-22 08:35 51.78251 19.73015 3836 ft 189 kts 311°
2026-04-22 08:35 51.78606 19.71065 3693 ft 183 kts 271°
2026-04-22 08:35 51.78371 19.69057 3462 ft 180 kts 263°
2026-04-22 08:36 51.78072 19.67119 3322 ft 176 kts 259°
2026-04-22 08:36 51.77719 19.65264 3225 ft 174 kts 257°
2026-04-22 08:36 51.77336 19.63421 3136 ft 173 kts 256°
2026-04-22 08:36 51.76940 19.61570 3043 ft 175 kts 256°
2026-04-22 08:37 51.76538 19.59713 2952 ft 176 kts 255°
2026-04-22 08:37 51.76136 19.57869 2819 ft 170 kts 256°
2026-04-22 08:37 51.75745 19.56075 2588 ft 168 kts 256°
2026-04-22 08:37 51.75363 19.54327 2366 ft 166 kts 256°
2026-04-22 08:38 51.74980 19.52580 2143 ft 162 kts 256°
2026-04-22 08:38 51.74613 19.50898 1950 ft 158 kts 256°
2026-04-22 08:38 51.74248 19.49233 1731 ft 155 kts 255°
2026-04-22 08:38 51.73893 19.47610 1521 ft 153 kts 255°
2026-04-22 08:39 51.73537 19.45982 1323 ft 159 kts 253°
2026-04-22 08:39 51.73153 19.44229 1130 ft 173 kts 252°
2026-04-22 08:39 51.72750 19.42392 877 ft 168 kts 251°
2026-04-22 08:39 51.72362 19.40676 672 ft 160 kts 251°
2026-04-22 08:40 51.72036 19.39107 615 ft 119 kts 249°
2026-04-22 08:40 51.71897 19.38496 615 ft 16 kts 252°
2026-04-22 08:40 51.71860 19.38384 615 ft 5 kts 261°
2026-04-22 08:40 51.71858 19.38344 615 ft 1 kts 293°
2026-04-22 08:41 51.71866 19.38335 615 ft 4 kts 345°
2026-04-22 08:41 51.71891 19.38438 615 ft 20 kts 86°
2026-04-22 08:41 51.71948 19.38727 615 ft 33 kts 70°
2026-04-22 08:41 51.72042 19.39146 615 ft 45 kts 70°
2026-04-22 08:42 51.72159 19.39667 615 ft 53 kts 70°
2026-04-22 08:42 51.72264 19.40222 615 ft 46 kts 65°
2026-04-22 08:42 51.72317 19.40415 615 ft 12 kts 70°
2026-04-22 08:42 51.72350 19.40557 615 ft 7 kts 56°
2026-04-22 08:43 51.72384 19.40588 615 ft 6 kts
2026-04-22 08:43 51.72437 19.40569 615 ft 6 kts 341°
2026-04-22 08:43 51.72465 19.40553 615 ft 1 kts 334°
2026-04-22 08:43 51.72469 19.40549 615 ft 0 kts 334°
2026-04-22 08:44 51.72482 19.40532 615 ft 8 kts 314°
2026-04-22 08:44 51.72492 19.40448 615 ft 7 kts 252°
2026-04-22 08:44 51.72478 19.40381 615 ft 8 kts 251°
2026-04-22 08:44 51.72453 19.40263 615 ft 15 kts 251°
2026-04-22 08:45 51.72493 19.40163 615 ft 11 kts 343°
2026-04-22 08:45 51.72548 19.40127 615 ft 7 kts 334°
2026-04-22 08:45 51.72586 19.40099 615 ft 5 kts 340°
2026-04-22 08:45 51.72601 19.40091 615 ft 0 kts 340°
2026-04-22 08:46 51.72601 19.40090 615 ft 0 kts 340°
2026-04-22 08:46 51.72602 19.40090 615 ft 0 kts 340°